EDT,Max TemperatureF,Mean TemperatureF,Min TemperatureF,Max Dew PointF,MeanDew PointF,Min DewpointF,Max Humidity, Mean Humidity, Min Humidity, Max Sea Level PressureIn, Mean Sea Level PressureIn, Min Sea Level PressureIn, Max VisibilityMiles, Mean VisibilityMiles, Min VisibilityMiles, Max Wind SpeedMPH, Mean Wind SpeedMPH, Max Gust SpeedMPH,PrecipitationIn, CloudCover, Events, WindDirDegrees
2013-3-1,46,36,26,32,28,23,93,76,46,29.96,29.93,29.89,10,10,10,9,1,,0.00,3,,323
2013-3-2,46,38,30,34,29,21,87,75,52,29.97,29.93,29.86,10,10,3,12,2,16,0.00,6,Snow,344
2013-3-3,46,35,24,21,18,14,74,56,29,30.03,29.98,29.91,10,10,10,12,4,17,0.00,0,,330
2013-3-4,53,38,24,27,18,10,74,52,18,30.16,30.09,30.03,10,10,10,9,1,,0.00,0,,290
2013-3-5,50,42,33,45,35,27,93,75,49,30.09,29.92,29.63,10,8,3,14,1,23,0.18,5,Rain,319
2013-3-6,48,40,33,41,27,19,93,63,37,30.14,29.86,29.64,10,10,7,20,8,32,0.00,3,,310
2013-3-7,55,42,28,28,25,23,86,65,29,30.30,30.21,30.14,10,10,10,16,3,20,0.00,0,,347
2013-3-8,57,42,28,27,23,18,75,55,21,30.35,30.29,30.24,10,10,10,54,7,24,0.00,0,,352
2013-3-9,62,45,28,32,27,25,93,62,26,30.38,30.32,30.27,10,10,10,8,3,,0.00,0,,7
2013-3-10,66,50,33,37,33,30,93,62,26,30.34,30.27,30.21,10,10,10,6,1,,0.00,0,,138
2013-3-11,69,56,42,54,38,23,94,57,40,30.24,30.09,29.91,10,10,7,15,3,23,0.04,3,Rain,153
2013-3-12,68,57,46,57,47,27,94,73,26,30.02,29.88,29.79,10,7,2,13,6,20,0.73,5,Rain,232
2013-3-13,55,44,32,36,25,14,100,62,23,30.19,30.08,30.01,10,10,10,17,4,26,0.00,1,,311
2013-3-14,53,40,28,19,16,10,64,45,19,30.31,30.23,30.18,10,10,10,14,7,20,0.00,0,,327
2013-3-15,66,47,28,37,26,18,80,55,27,30.23,30.12,29.93,10,10,10,12,3,17,0.00,0,,261
2013-3-16,78,64,51,41,39,37,58,42,26,29.93,29.87,29.75,10,10,10,20,7,28,0.00,1,,226
2013-3-17,71,58,44,48,40,37,76,60,35,30.15,29.98,29.89,10,10,7,12,2,18,0.00,2,,39
2013-3-18,44,42,39,43,38,37,100,89,76,30.17,30.09,29.89,10,6,1,12,5,,0.06,8,Rain-Thunderstorm,38
2013-3-19,64,52,39,45,30,10,100,63,15,30.08,29.95,29.87,10,6,0,16,5,29,0.00,5,,318
2013-3-20,55,48,42,27,12,3,49,25,16,30.15,30.01,29.81,10,10,10,13,7,20,0.00,4,,317
2013-3-21,46,39,32,28,12,5,61,36,22,30.01,29.88,29.81,10,10,10,18,8,28,0.00,0,,326
2013-3-22,51,37,23,21,14,10,74,44,21,30.11,30.04,30.00,10,10,10,10,4,17,0.00,1,,263
2013-3-23,53,45,37,39,32,21,87,66,37,30.08,30.01,29.94,10,10,5,5,1,,0.00,4,,201
2013-3-24,42,40,37,41,38,36,93,91,87,29.96,29.77,29.61,10,6,2,12,2,16,0.22,7,Rain,35
2013-3-25,48,42,35,46,30,18,100,74,32,29.91,29.69,29.59,10,8,3,17,3,31,0.02,6,,282
2013-3-26,46,39,32,25,23,21,69,55,37,30.20,30.01,29.91,10,10,10,12,6,23,0.00,4,,286
2013-3-27,51,40,30,27,22,18,75,56,26,30.28,30.23,30.19,10,10,10,12,4,21,0.00,0,,322
2013-3-28,55,42,30,25,21,16,69,52,21,30.33,30.29,30.22,10,10,10,13,4,18,0.00,0,,345
2013-3-29,62,45,28,32,25,19,86,55,19,30.38,30.31,30.22,10,10,10,13,3,16,0.00,2,,297
2013-3-30,64,54,44,45,40,32,93,66,37,30.26,30.20,30.11,10,10,7,8,2,,0.05,5,,224
2013-3-31,71,60,50,55,49,43,100,82,46,30.10,29.97,29.84,10,8,3,14,3,21,0.26,6,,189